Lake Conroe Weather Center

Moon Phase Calendar



Lake Conroe Water Level
Online Cameras

 


      

Current Conditions in Willis
6/24/2024 7:18:50 AM

78°F
Feels Like 79
Clear
Humidity
93%
Pressure
29.94"
Wind
2.8 mph (SSE)
Dew Point
75°F
UV Index
0/10 (Low)
Visibility
6 mi

Hourly Forecast

Date & Time Mon, Jun 24
7:00 AM
Mon, Jun 24
8:00 AM
Mon, Jun 24
9:00 AM
Mon, Jun 24
10:00 AM
Mon, Jun 24
11:00 AM
Mon, Jun 24
12:00 PM
Mon, Jun 24
1:00 PM
Mon, Jun 24
2:00 PM
Mon, Jun 24
3:00 PM
Mon, Jun 24
4:00 PM
Mon, Jun 24
5:00 PM
Mon, Jun 24
6:00 PM
Mon, Jun 24
7:00 PM
Mon, Jun 24
8:00 PM
Mon, Jun 24
9:00 PM
Mon, Jun 24
10:00 PM
Mon, Jun 24
11:00 PM
Tue, Jun 25
12:00 AM
Tue, Jun 25
1:00 AM
Tue, Jun 25
2:00 AM
Tue, Jun 25
3:00 AM
Tue, Jun 25
4:00 AM
Tue, Jun 25
5:00 AM
Tue, Jun 25
6:00 AM
Tue, Jun 25
7:00 AM
Tue, Jun 25
8:00 AM
Tue, Jun 25
9:00 AM
Tue, Jun 25
10:00 AM
Tue, Jun 25
11:00 AM
Tue, Jun 25
12:00 PM
Tue, Jun 25
1:00 PM
Tue, Jun 25
2:00 PM
Tue, Jun 25
3:00 PM
Tue, Jun 25
4:00 PM
Tue, Jun 25
5:00 PM
Tue, Jun 25
6:00 PM
Tue, Jun 25
7:00 PM
Tue, Jun 25
8:00 PM
Tue, Jun 25
9:00 PM
Tue, Jun 25
10:00 PM
Tue, Jun 25
11:00 PM
Wed, Jun 26
12:00 AM
Wed, Jun 26
1:00 AM
Wed, Jun 26
2:00 AM
Wed, Jun 26
3:00 AM
Wed, Jun 26
4:00 AM
Wed, Jun 26
5:00 AM
Wed, Jun 26
6:00 AM
Condition
Clear

Clear

Clear

Rain

Clear

Clear

Clear

Clouds

Clouds

Clouds

Clouds

Clouds

Clouds

Clouds

Clouds

Clouds

Clouds

Clouds

Clouds

Clear

Clear

Clear

Clear

Clear

Clear

Clear

Clouds

Clouds

Clouds

Clear

Clear

Clear

Clear

Clear

Clouds

Clouds

Clouds

Clouds

Clouds

Clouds

Clouds

Clouds

Clouds

Clouds

Clouds

Clouds

Clouds

Clouds
Temperature 78°F78°F80°F84°F89°F95°F97°F99°F94°F93°F95°F96°F94°F89°F86°F85°F83°F82°F80°F79°F78°F77°F76°F76°F77°F81°F84°F88°F92°F95°F97°F99°F101°F102°F101°F95°F92°F89°F88°F86°F84°F82°F80°F79°F78°F77°F77°F76°F
Feels Like 79°F80°F86°F92°F97°F101°F103°F104°F99°F97°F100°F100°F99°F95°F91°F90°F88°F87°F84°F80°F79°F78°F78°F78°F79°F86°F91°F95°F98°F100°F102°F103°F104°F106°F105°F101°F98°F95°F94°F91°F89°F87°F85°F79°F79°F78°F78°F78°F
Cloudiness 0%0%0%1%2%2%6%62%82%88%88%83%75%41%52%51%38%31%26%0%0%0%1%3%4%6%16%15%11%9%7%0%4%9%16%28%40%70%63%73%80%80%81%100%100%100%100%100%
Visibility 6 mi6 mi6 mi6 mi6 mi6 mi6 mi6 mi6 mi6 mi6 mi6 mi6 mi6 mi6 mi6 mi6 mi6 mi6 mi6 mi6 mi6 mi6 mi6 mi6 mi6 mi6 mi6 mi6 mi6 mi6 mi6 mi6 mi6 mi6 mi6 mi6 mi6 mi6 mi6 mi6 mi6 mi6 mi6 mi6 mi6 mi6 mi6 mi
Precipitation 0%0%44%40%32%21%11%0%0%0%0%0%0%0%0%0%0%0%0%0%0%0%0%0%0%0%0%0%0%0%0%0%0%0%0%0%0%5%3%0%0%0%0%0%0%0%0%0%
Humidity 93%90%85%74%59%44%39%36%43%45%43%38%44%55%59%62%67%73%79%84%88%91%93%95%93%82%70%59%50%43%38%34%31%30%31%42%49%53%55%61%68%74%78%82%87%91%93%94%
Dew Point 75°F75°F76°F75°F73°F70°F68°F67°F68°F68°F69°F67°F69°F70°F70°F70°F71°F72°F73°F73°F74°F74°F74°F74°F74°F74°F74°F72°F70°F69°F67°F66°F65°F64°F65°F68°F70°F70°F70°F71°F72°F73°F73°F73°F73°F74°F74°F74°F
Pressure 29.94"29.94"29.94"29.97"29.94"29.94"29.91"29.88"29.88"29.88"29.85"29.83"29.85"29.85"29.85"29.88"29.88"29.91"29.91"29.91"29.91"29.91"29.91"29.94"29.94"29.94"29.97"29.94"29.94"29.91"29.91"29.88"29.85"29.83"29.83"29.83"29.85"29.85"29.85"29.88"29.91"29.91"29.91"29.91"29.91"29.88"29.88"29.88"
Wind Speed 2.8 mph3.4 mph4 mph4.7 mph6.2 mph7.2 mph7.7 mph8.6 mph8.9 mph8 mph6.8 mph7.3 mph7.7 mph8.1 mph7.5 mph7.5 mph7 mph6.8 mph5.4 mph4.5 mph4.4 mph3.8 mph3.4 mph3.5 mph3 mph5.1 mph6.2 mph6.7 mph7 mph7.5 mph7.6 mph7.5 mph7.6 mph7.8 mph8.8 mph12.2 mph13 mph10.6 mph10.4 mph10.7 mph9.1 mph7.6 mph6.9 mph6.5 mph5.8 mph5.8 mph5.8 mph5 mph
Wind
Direction
148°
SSE
154°
SSE
156°
SSE
139°
SE
129°
SE
126°
SE
124°
SE
129°
SE
154°
SSE
180°
S
178°
S
154°
SSE
129°
SE
130°
SE
151°
SSE
166°
SSE
179°
S
194°
SSW
191°
S
189°
S
198°
SSW
201°
SSW
202°
SSW
197°
SSW
195°
SSW
189°
S
187°
S
184°
S
181°
S
178°
S
178°
S
181°
S
186°
S
188°
S
167°
SSE
148°
SSE
153°
SSE
168°
SSE
179°
S
191°
S
192°
SSW
201°
SSW
210°
SSW
209°
SSW
206°
SSW
205°
SSW
200°
SSW
193°
SSW

Daily Forecast

Date High Low Precip. Humidity
Today
Jun 24

Rain
99 °F
77 °F
44%
39%
Tuesday
Jun 25

Clear
102 °F
76 °F
5%
38%
Wednesday
Jun 26

Clouds
101 °F
76 °F
0%
39%
Thursday
Jun 27

Clouds
97 °F
75 °F
3%
38%
Friday
Jun 28

Clear
101 °F
76 °F
0%
40%
Saturday
Jun 29

Clouds
103 °F
80 °F
0%
36%
Sunday
Jun 30

Rain
100 °F
77 °F
31%
34%
Monday
Jul 1

Rain
100 °F
77 °F
20%
35%
Tuesday
Jul 2

Clear
97 °F
76 °F
0%
37%
Wednesday
Jul 3

Clouds
98 °F
77 °F
0%
34%
Thursday
Jul 4

Clear
103 °F
77 °F
0%
35%
Friday
Jul 5

Clear
103 °F
76 °F
0%
36%
Saturday
Jul 6

Clear
103 °F
76 °F
0%
36%
Sunday
Jul 7

Clouds
101 °F
76 °F
0%
35%
Monday
Jul 8

Clouds
102 °F
77 °F
0%
34%
Tuesday
Jul 9

Clouds
99 °F
78 °F
0%
33%

Temperature 8-14 Day Outlook



Precipitation 8-14 Day Outlook






About Us
Contact Us
Site Map
Search Site
Advertise With Us
   
Conroe.USLakes.info
THE LAKE CONROE WEBSITE

Copyright 2024, Lakes Online
Privacy    |    Legal